| time (UTC) | temp F | wind direction | speed MPH | gust MPH | rain 1hr in | rain 24hr in | rain mn in | humidity % | barometer mb |
| 20260504060104 | 56 | 265 | 5.0 | 9.0 | 0.00 | 0.00 | 0.00 | 48 | 1001.8 |
| 20260504050545 | 55 | 249 | 4.0 | 7.0 | 0.00 | 0.00 | 0.00 | 47 | 1002.6 |
| 20260504045544 | 55 | 273 | 3.0 | 6.0 | 0.00 | 0.00 | 0.00 | 46 | 1002.7 |
| 20260504045046 | 56 | 259 | 3.0 | 6.0 | 0.00 | 0.00 | 0.00 | 45 | 1002.8 |
| 20260504044552 | 56 | 236 | 3.0 | 7.0 | 0.00 | 0.00 | 0.00 | 44 | 1002.9 |
| 20260504044046 | 56 | 259 | 3.0 | 7.0 | 0.00 | 0.00 | 0.00 | 44 | 1003.0 |
| 20260504043545 | 56 | 255 | 3.0 | 8.0 | 0.00 | 0.00 | 0.00 | 43 | 1003.0 |
| 20260504043057 | 56 | 243 | 4.0 | 8.0 | 0.00 | 0.00 | 0.00 | 43 | 1003.1 |
| 20260504042548 | 56 | 247 | 4.0 | 7.0 | 0.00 | 0.00 | 0.00 | 43 | 1003.2 |
| 20260504042044 | 56 | 235 | 4.0 | 7.0 | 0.00 | 0.00 | 0.00 | 43 | 1003.2 |
| 20260504041549 | 56 | 232 | 4.0 | 7.0 | 0.00 | 0.00 | 0.00 | 43 | 1003.3 |
| 20260504041044 | 56 | 215 | 4.0 | 7.0 | 0.00 | 0.00 | 0.00 | 43 | 1003.3 |
| 20260504040547 | 56 | 233 | 4.0 | 7.0 | 0.00 | 0.00 | 0.00 | 43 | 1003.5 |
| 20260504040055 | 56 | 234 | 4.0 | 7.0 | 0.00 | 0.00 | 0.00 | 43 | 1003.5 |
| 20260504035545 | 56 | 239 | 4.0 | 7.0 | 0.00 | 0.00 | 0.00 | 43 | 1003.7 |
| 20260504035044 | 57 | 242 | 4.0 | 6.0 | 0.00 | 0.00 | 0.00 | 43 | 1003.7 |
| 20260504034606 | 56 | 252 | 3.0 | 7.0 | 0.00 | 0.00 | 0.00 | 43 | 1003.8 |
| 20260504034046 | 56 | 238 | 3.0 | 7.0 | 0.00 | 0.00 | 0.00 | 43 | 1003.9 |
| 20260504033544 | 56 | 240 | 3.0 | 7.0 | 0.00 | 0.00 | 0.00 | 43 | 1004.0 |
| 20260504033059 | 56 | 241 | 3.0 | 6.0 | 0.00 | 0.00 | 0.00 | 43 | 1004.0 |
| 20260504032545 | 56 | 244 | 2.0 | 4.0 | 0.00 | 0.00 | 0.00 | 43 | 1004.2 |
| 20260504032045 | 57 | 244 | 3.0 | 6.0 | 0.00 | 0.00 | 0.00 | 42 | 1004.3 |
| 20260504031605 | 57 | 240 | 3.0 | 6.0 | 0.00 | 0.00 | 0.00 | 40 | 1004.2 |
| 20260504031045 | 58 | 243 | 3.0 | 5.0 | 0.00 | 0.00 | 0.00 | 39 | 1004.3 |
| 20260504030544 | 58 | 240 | 3.0 | 5.0 | 0.00 | 0.00 | 0.00 | 39 | 1004.4 |
| 20260504030113 | 59 | 240 | 3.0 | 8.0 | 0.00 | 0.00 | 0.00 | 38 | 1004.5 |
| 20260504025547 | 60 | 241 | 4.0 | 8.0 | 0.00 | 0.00 | 0.00 | 37 | 1004.5 |
| 20260504025047 | 60 | 234 | 6.0 | 8.0 | 0.00 | 0.00 | 0.00 | 36 | 1004.5 |
| 20260504024551 | 60 | 238 | 6.0 | 8.0 | 0.00 | 0.00 | 0.00 | 36 | 1004.5 |
| 20260504024047 | 60 | 251 | 4.0 | 7.0 | 0.00 | 0.00 | 0.00 | 36 | 1004.6 |
| 20260504023546 | 60 | 244 | 3.0 | 7.0 | 0.00 | 0.00 | 0.00 | 37 | 1004.6 |
| 20260504023053 | 60 | 240 | 3.0 | 8.0 | 0.00 | 0.00 | 0.00 | 38 | 1004.6 |
| 20260504022545 | 60 | 245 | 6.0 | 8.0 | 0.00 | 0.00 | 0.00 | 37 | 1004.6 |
| 20260504022045 | 61 | 250 | 3.0 | 7.0 | 0.00 | 0.00 | 0.00 | 36 | 1004.6 |
| 20260504021550 | 62 | 226 | 3.0 | 7.0 | 0.00 | 0.00 | 0.00 | 35 | 1004.6 |
| 20260504021045 | 63 | 232 | 2.0 | 4.0 | 0.00 | 0.00 | 0.00 | 33 | 1004.7 |
| 20260504020545 | 63 | 247 | 0.0 | 3.0 | 0.00 | 0.00 | 0.00 | 34 | 1004.7 |
| 20260504020051 | 63 | 243 | 2.0 | 3.0 | 0.00 | 0.00 | 0.00 | 34 | 1004.8 |
| 20260504015545 | 63 | 235 | 1.0 | 3.0 | 0.00 | 0.00 | 0.00 | 34 | 1004.8 |
| 20260504015045 | 63 | 0 | 1.0 | 3.0 | 0.00 | 0.00 | 0.00 | 34 | 1004.7 |
| 20260504014556 | 63 | 238 | 1.0 | 3.0 | 0.00 | 0.00 | 0.00 | 35 | 1004.7 |
| 20260504014045 | 64 | 0 | 0.0 | 3.0 | 0.00 | 0.00 | 0.00 | 35 | 1004.8 |
| 20260504013547 | 64 | 0 | 0.0 | 3.0 | 0.00 | 0.00 | 0.00 | 35 | 1004.8 |
| 20260504013050 | 65 | 242 | 1.0 | 3.0 | 0.00 | 0.00 | 0.00 | 35 | 1004.7 |
| 20260504012545 | 64 | 252 | 0.0 | 2.0 | 0.00 | 0.00 | 0.00 | 35 | 1004.7 |
| 20260504012047 | 64 | 0 | 0.0 | 1.0 | 0.00 | 0.00 | 0.00 | 37 | 1004.6 |
| 20260504011553 | 65 | 0 | 0.0 | 4.0 | 0.00 | 0.00 | 0.00 | 36 | 1004.6 |
| 20260504011044 | 65 | 0 | 0.0 | 4.0 | 0.00 | 0.00 | 0.00 | 35 | 1004.6 |
| 20260504010545 | 66 | 246 | 0.0 | 4.0 | 0.00 | 0.00 | 0.00 | 34 | 1004.6 |
| 20260504010054 | 66 | 0 | 0.0 | 0.0 | 0.00 | 0.00 | 0.00 | 34 | 1004.6 |
| 20260504005545 | 67 | 0 | 0.0 | 1.0 | 0.00 | 0.00 | 0.00 | 33 | 1004.6 |
| 20260504005047 | 67 | 0 | 0.0 | 1.0 | 0.00 | 0.00 | 0.00 | 33 | 1004.6 |
| 20260504004553 | 67 | 0 | 0.0 | 2.0 | 0.00 | 0.00 | 0.00 | 32 | 1004.8 |
| 20260504004046 | 68 | 0 | 0.0 | 2.0 | 0.00 | 0.00 | 0.00 | 31 | 1004.7 |
| 20260504003545 | 69 | 0 | 0.0 | 5.0 | 0.00 | 0.00 | 0.00 | 30 | 1004.8 |
| 20260504003051 | 69 | 0 | 0.0 | 5.0 | 0.00 | 0.00 | 0.00 | 30 | 1004.9 |
| 20260504002546 | 69 | 266 | 0.0 | 4.0 | 0.00 | 0.00 | 0.00 | 30 | 1004.9 |
| 20260504002047 | 69 | 240 | 1.0 | 4.0 | 0.00 | 0.00 | 0.00 | 29 | 1005.0 |
| 20260504001556 | 69 | 0 | 0.0 | 3.0 | 0.00 | 0.00 | 0.00 | 30 | 1005.0 |
| 20260504001044 | 70 | 0 | 0.0 | 3.0 | 0.00 | 0.00 | 0.00 | 30 | 1005.1 |
| 20260504000547 | 70 | 271 | 1.0 | 3.0 | 0.00 | 0.00 | 0.00 | 30 | 1005.1 |
| 20260504000135 | 70 | 183 | 1.0 | 3.0 | 0.00 | 0.00 | 0.00 | 30 | 1005.1 |
| 20260503235544 | 71 | 323 | 1.0 | 3.0 | 0.00 | 0.00 | 0.00 | 29 | 1005.2 |
| 20260503235044 | 71 | 0 | 0.0 | 5.0 | 0.00 | 0.00 | 0.00 | 28 | 1005.2 |
| 20260503234556 | 71 | 0 | 1.0 | 5.0 | 0.00 | 0.00 | 0.00 | 30 | 1005.2 |
| 20260503234045 | 71 | 295 | 2.0 | 8.0 | 0.00 | 0.00 | 0.00 | 28 | 1005.2 |
| 20260503233546 | 71 | 275 | 2.0 | 8.0 | 0.00 | 0.00 | 0.00 | 29 | 1005.3 |
| 20260503233049 | 71 | 0 | 1.0 | 9.0 | 0.00 | 0.00 | 0.00 | 28 | 1005.4 |
| 20260503232546 | 71 | 214 | 4.0 | 9.0 | 0.00 | 0.00 | 0.00 | 26 | 1005.4 |
| 20260503232044 | 72 | 238 | 1.0 | 5.0 | 0.00 | 0.00 | 0.00 | 26 | 1005.5 |
| 20260503231555 | 72 | 271 | 1.0 | 5.0 | 0.00 | 0.00 | 0.00 | 27 | 1005.5 |
| 20260503231048 | 72 | 336 | 1.0 | 5.0 | 0.00 | 0.00 | 0.00 | 26 | 1005.5 |
| 20260503230544 | 72 | 286 | 2.0 | 5.0 | 0.00 | 0.00 | 0.00 | 28 | 1005.5 |
| 20260503230057 | 72 | 296 | 1.0 | 8.0 | 0.00 | 0.00 | 0.00 | 26 | 1005.6 |
| 20260503225545 | 72 | 230 | 1.0 | 8.0 | 0.00 | 0.00 | 0.00 | 27 | 1005.6 |
| 20260503225045 | 72 | 235 | 1.0 | 7.0 | 0.00 | 0.00 | 0.00 | 26 | 1005.6 |
| 20260503224556 | 73 | 252 | 3.0 | 10.0 | 0.00 | 0.00 | 0.00 | 25 | 1005.7 |
| 20260503224047 | 72 | 298 | 2.0 | 10.0 | 0.00 | 0.00 | 0.00 | 27 | 1005.8 |
| 20260503223548 | 72 | 236 | 5.0 | 10.0 | 0.00 | 0.00 | 0.00 | 24 | 1005.8 |
| 20260503223054 | 73 | 259 | 1.0 | 7.0 | 0.00 | 0.00 | 0.00 | 27 | 1005.8 |
| 20260503222543 | 73 | 0 | 2.0 | 7.0 | 0.00 | 0.00 | 0.00 | 27 | 1005.9 |
| 20260503222043 | 72 | 265 | 2.0 | 7.0 | 0.00 | 0.00 | 0.00 | 26 | 1005.9 |
| 20260503221551 | 72 | 317 | 3.0 | 7.0 | 0.00 | 0.00 | 0.00 | 28 | 1005.8 |
| 20260503221044 | 72 | 307 | 3.0 | 12.0 | 0.00 | 0.00 | 0.00 | 27 | 1005.9 |
| 20260503220545 | 72 | 252 | 2.0 | 12.0 | 0.00 | 0.00 | 0.00 | 26 | 1005.8 |
| 20260503220057 | 72 | 272 | 2.0 | 10.0 | 0.00 | 0.00 | 0.00 | 27 | 1005.9 |
| 20260503215545 | 72 | 150 | 2.0 | 11.0 | 0.00 | 0.00 | 0.00 | 28 | 1005.9 |
| 20260503215044 | 73 | 307 | 3.0 | 11.0 | 0.00 | 0.00 | 0.00 | 27 | 1006.1 |
| 20260503214553 | 72 | 316 | 2.0 | 7.0 | 0.00 | 0.00 | 0.00 | 28 | 1006.1 |
| 20260503214045 | 72 | 266 | 3.0 | 7.0 | 0.00 | 0.00 | 0.00 | 27 | 1006.2 |
| 20260503213544 | 72 | 241 | 2.0 | 9.0 | 0.00 | 0.00 | 0.00 | 26 | 1006.1 |
| 20260503213053 | 72 | 309 | 3.0 | 9.0 | 0.00 | 0.00 | 0.00 | 27 | 1006.3 |
| 20260503212544 | 72 | 312 | 3.0 | 9.0 | 0.00 | 0.00 | 0.00 | 30 | 1006.4 |
| 20260503212043 | 72 | 262 | 2.0 | 9.0 | 0.00 | 0.00 | 0.00 | 29 | 1006.4 |
| 20260503211553 | 72 | 302 | 3.0 | 9.0 | 0.00 | 0.00 | 0.00 | 31 | 1006.4 |
| 20260503211045 | 72 | 280 | 3.0 | 9.0 | 0.00 | 0.00 | 0.00 | 29 | 1006.4 |
| 20260503210544 | 72 | 295 | 3.0 | 9.0 | 0.00 | 0.00 | 0.00 | 26 | 1006.5 |
| 20260503210052 | 72 | 291 | 3.0 | 10.0 | 0.00 | 0.00 | 0.00 | 29 | 1006.5 |
| 20260503205544 | 72 | 253 | 3.0 | 10.0 | 0.00 | 0.00 | 0.00 | 29 | 1006.6 |
| 20260503205046 | 72 | 335 | 4.0 | 9.0 | 0.00 | 0.00 | 0.00 | 28 | 1006.7 |
| 20260503204555 | 72 | 254 | 3.0 | 9.0 | 0.00 | 0.00 | 0.00 | 29 | 1006.7 |
| 20260503204043 | 72 | 279 | 3.0 | 9.0 | 0.00 | 0.00 | 0.00 | 30 | 1006.7 |
| 20260503203543 | 71 | 321 | 3.0 | 10.0 | 0.00 | 0.00 | 0.00 | 30 | 1006.8 |
| 20260503203101 | 72 | 315 | 3.0 | 10.0 | 0.00 | 0.00 | 0.00 | 33 | 1006.9 |
| 20260503202546 | 72 | 286 | 3.0 | 11.0 | 0.00 | 0.00 | 0.00 | 29 | 1007.0 |
| 20260503202046 | 72 | 348 | 4.0 | 11.0 | 0.00 | 0.00 | 0.00 | 30 | 1007.1 |
| 20260503201559 | 72 | 266 | 3.0 | 11.0 | 0.00 | 0.00 | 0.00 | 30 | 1007.1 |
| 20260503201047 | 72 | 305 | 3.0 | 12.0 | 0.00 | 0.00 | 0.00 | 31 | 1007.2 |
| 20260503200543 | 72 | 271 | 3.0 | 12.0 | 0.00 | 0.00 | 0.00 | 32 | 1007.2 |
| 20260503200051 | 72 | 317 | 5.0 | 11.0 | 0.00 | 0.00 | 0.00 | 29 | 1007.3 |
| 20260503195545 | 72 | 300 | 3.0 | 8.0 | 0.00 | 0.00 | 0.00 | 31 | 1007.4 |
| 20260503195047 | 72 | 347 | 2.0 | 11.0 | 0.00 | 0.00 | 0.00 | 31 | 1007.5 |
| 20260503194554 | 72 | 287 | 4.0 | 15.0 | 0.00 | 0.00 | 0.00 | 32 | 1007.4 |
| 20260503194044 | 71 | 319 | 7.0 | 15.0 | 0.00 | 0.00 | 0.00 | 31 | 1007.6 |
| 20260503193545 | 71 | 260 | 3.0 | 11.0 | 0.00 | 0.00 | 0.00 | 31 | 1007.5 |
| 20260503193055 | 72 | 313 | 5.0 | 12.0 | 0.00 | 0.00 | 0.00 | 31 | 1007.6 |
| 20260503192543 | 71 | 325 | 4.0 | 13.0 | 0.00 | 0.00 | 0.00 | 34 | 1007.8 |
| 20260503192043 | 71 | 246 | 5.0 | 16.0 | 0.00 | 0.00 | 0.00 | 30 | 1007.8 |
| 20260503191551 | 71 | 352 | 5.0 | 16.0 | 0.00 | 0.00 | 0.00 | 33 | 1007.8 |
| 20260503191044 | 72 | 323 | 6.0 | 16.0 | 0.00 | 0.00 | 0.00 | 32 | 1007.9 |
| 20260503190544 | 71 | 5 | 4.0 | 10.0 | 0.00 | 0.00 | 0.00 | 33 | 1007.8 |
| 20260503190056 | 71 | 302 | 5.0 | 10.0 | 0.00 | 0.00 | 0.00 | 33 | 1007.9 |
| 20260503185545 | 71 | 317 | 4.0 | 10.0 | 0.00 | 0.00 | 0.00 | 33 | 1008.0 |
| 20260503185047 | 71 | 283 | 6.0 | 13.0 | 0.00 | 0.00 | 0.00 | 32 | 1008.0 |
| 20260503184611 | 71 | 334 | 3.0 | 13.0 | 0.00 | 0.00 | 0.00 | 32 | 1008.1 |
| 20260503184048 | 71 | 283 | 8.0 | 13.0 | 0.00 | 0.00 | 0.00 | 33 | 1008.1 |
| 20260503183546 | 70 | 321 | 5.0 | 12.0 | 0.00 | 0.00 | 0.00 | 35 | 1008.1 |
| 20260503183100 | 71 | 322 | 5.0 | 10.0 | 0.00 | 0.00 | 0.00 | 34 | 1008.1 |
| 20260503182548 | 70 | 285 | 5.0 | 11.0 | 0.00 | 0.00 | 0.00 | 33 | 1008.2 |
| 20260503182044 | 71 | 322 | 4.0 | 11.0 | 0.00 | 0.00 | 0.00 | 34 | 1008.2 |
| 20260503181556 | 71 | 340 | 5.0 | 11.0 | 0.00 | 0.00 | 0.00 | 33 | 1008.3 |
| 20260503181048 | 70 | 351 | 5.0 | 12.0 | 0.00 | 0.00 | 0.00 | 34 | 1008.3 |
| 20260503180544 | 70 | 276 | 4.0 | 12.0 | 0.00 | 0.00 | 0.00 | 35 | 1008.5 |
| 20260503180056 | 70 | 332 | 5.0 | 12.0 | 0.00 | 0.00 | 0.00 | 34 | 1008.5 |
| 20260503175546 | 70 | 298 | 5.0 | 11.0 | 0.00 | 0.00 | 0.00 | 34 | 1008.5 |
| 20260503175045 | 69 | 295 | 5.0 | 11.0 | 0.00 | 0.00 | 0.00 | 34 | 1008.7 |
| 20260503174554 | 69 | 252 | 6.0 | 11.0 | 0.00 | 0.00 | 0.00 | 35 | 1008.6 |
| 20260503174046 | 70 | 303 | 4.0 | 11.0 | 0.00 | 0.00 | 0.00 | 36 | 1008.7 |
| 20260503173546 | 69 | 291 | 5.0 | 14.0 | 0.00 | 0.00 | 0.00 | 35 | 1008.6 |
| 20260503173052 | 69 | 292 | 4.0 | 14.0 | 0.00 | 0.00 | 0.00 | 36 | 1008.7 |
| 20260503172545 | 69 | 336 | 6.0 | 14.0 | 0.00 | 0.00 | 0.00 | 35 | 1008.8 |
| 20260503172045 | 69 | 290 | 4.0 | 17.0 | 0.00 | 0.00 | 0.00 | 35 | 1008.6 |
| 20260503171610 | 69 | 350 | 11.0 | 17.0 | 0.00 | 0.00 | 0.00 | 34 | 1008.8 |
| 20260503171045 | 69 | 315 | 6.0 | 13.0 | 0.00 | 0.00 | 0.00 | 35 | 1008.7 |
| 20260503170547 | 69 | 321 | 7.0 | 15.0 | 0.00 | 0.00 | 0.00 | 37 | 1008.8 |
| 20260503170103 | 68 | 308 | 6.0 | 15.0 | 0.00 | 0.00 | 0.00 | 37 | 1008.8 |
| 20260503150544 | 64 | 286 | 5.0 | 12.0 | 0.00 | 0.00 | 0.00 | 48 | 1008.7 |
| 20260503131043 | 54 | 313 | 3.0 | 8.0 | 0.00 | 0.00 | 0.00 | 61 | 1007.8 |
| 20260503130543 | 53 | 299 | 4.0 | 8.0 | 0.00 | 0.00 | 0.00 | 62 | 1007.7 |
| 20260503110544 | 48 | 259 | 1.0 | 2.0 | 0.00 | 0.00 | 0.00 | 69 | 1005.5 |
| 20260503090105 | 56 | 243 | 4.0 | 8.0 | 0.00 | 0.00 | 0.00 | 52 | 1005.2 |
| 20260503081552 | 54 | 246 | 1.0 | 4.0 | 0.00 | 0.00 | 0.00 | 52 | 1005.4 |
| 20260503081047 | 54 | 231 | 1.0 | 5.0 | 0.00 | 0.00 | 0.00 | 52 | 1005.5 |
| 20260503080547 | 55 | 0 | 2.0 | 6.0 | 0.00 | 0.00 | 0.00 | 51 | 1005.6 |
| 20260503080107 | 55 | 272 | 2.0 | 7.0 | 0.00 | 0.00 | 0.00 | 51 | 1005.7 |
| 20260503072548 | 54 | 248 | 3.0 | 8.0 | 0.00 | 0.00 | 0.00 | 49 | 1005.9 |
| 20260503072047 | 55 | 163 | 3.0 | 10.0 | 0.00 | 0.00 | 0.00 | 48 | 1005.9 |
| 20260503071609 | 55 | 176 | 6.0 | 10.0 | 0.00 | 0.00 | 0.00 | 47 | 1006.0 |
| 20260503071047 | 56 | 136 | 6.0 | 12.0 | 0.00 | 0.00 | 0.00 | 46 | 1006.1 |
| 20260503070545 | 56 | 150 | 6.0 | 12.0 | 0.00 | 0.00 | 0.00 | 46 | 1006.0 |